Terminal Aerodrome Forecast
Issued by NWS

Home | Current Version | Previous Version | Text Only | Print | Product List | Glossary On
Versions: 1 2 3 4 5 6 7 8 9 10 11 12 13 14 15 16 17 18
000
FTAK31 PAFA 212325
TAFATA
TAF
PATA 212325Z 2200/2224 08004KT P6SM SCT070
     FM220900 08006KT 4SM BR VCSH FEW050 SCT100 OVC200
     FM221400 10006KT 2SM -SN BR SCT012 BKN025 OVC050=

USA.gov is the U.S. government's official web portal to all federal, state and local government web resources and services.